User: anonymous   Login
Location: Caltech
(34.1382°N, 118.1253°W)
Time: 16:13:02
(UTC-08:00)
Language:

NOSS 3-4 (C) - Orbit

View from above orbital plane
View from above orbital plane
View from above satellite
View from above satellite

Ground track
Ground track

The orbit data is extracted from the following two-line orbital elements,

1 31708U 07027C   14328.76199797 0.00000000  00000-0  00000-0 0    01
2 31708  63.4030 307.4445 0115000  37.0955 322.9045 13.40660694    04
Epoch (UTC): 24 November 2014 18:17:16
Eccentricity: 0.0115000
inclination: 63.4030°
perigee height: 1021 km
apogee height: 1193 km
right ascension of ascending node: 307.4445°
argument of perigee: 37.0955°
revolutions per day: 13.40660694
mean anomaly at epoch: 322.9045°
orbit number at epoch: 0

The dashed part of the orbit path shows where the satellite is in the earth's shadow,  

DLR